Location: Unspecified
(0.0000°N, 0.0000°E)
Time: 06:22:18
(UTC+00:00)

deb r/b Ablestar - Visible Passes

Search period start: 17 September 2024 00:00
Search period end: 27 September 2024 00:00
Orbit: 948 x 1321 km, 67.2° (Epoch: 16 September)

Date Brightness Start Highest point End Pass type
(mag) Time Alt. Az. Time Alt. Az. Time Alt. Az.
21 Sep ? 19:09:25 10° SSE 19:10:05 12° SE 19:10:05 12° SE visible
21 Sep ? 20:58:10 10° SW 20:58:14 10° SW 20:58:14 10° SW visible
22 Sep ? 20:21:32 10° SSW 20:24:22 28° SSW 20:24:22 28° SSW visible
23 Sep ? 19:45:18 10° SSW 19:50:47 63° SSE 19:50:47 63° SSE visible
24 Sep ? 19:09:27 10° S 19:15:34 44° ESE 19:17:34 35° ENE visible
24 Sep ? 21:02:11 10° WSW 21:05:49 18° WNW 21:05:49 18° WNW visible
25 Sep ? 18:34:06 10° SSE 18:39:23 26° ESE 18:44:55 10° NE visible
25 Sep ? 20:24:27 10° SW 20:30:07 30° WNW 20:33:12 22° NNW visible
26 Sep ? 19:47:28 10° SW 19:53:47 49° WNW 20:00:39 10° N visible
